Regional Weather Roundup
Issued by NWS Wakefield, VA

Home | Current Version | Previous Version | Text Only | Print | Product List | Glossary Off
Versions: 1 2 3 4 5 6 7 8 9 10 11 12 13 14 15 16 17 18 19 20 21 22 23 24 25 26 27 28

000
ASUS41 KAKQ 240115
RWRAKQ

REGIONAL WEATHER ROUNDUP
NATIONAL WEATHER SERVICE WAKEFIELD VA
900 PM EDT SUN APR 23 2017

Note: "fair" indicates few or no clouds below 12,000 feet with no
significant weather and/or obstructions to visibility. * = Denotes
station may not report precipitation (e.g., rain,snow,etc.),
thunder or fog.

VAZ042-051-052>054-056-240200-
NORTHERN VIRGINIA

CITY           SKY/WX    TMP DP  RH WIND       PRES   REMARKS
WASH NATIONAL  CLOUDY    58  45  62 E6        30.10S
DULLES         CLOUDY    54  43  66 SE5       30.09S
FORT BELVOIR   PTCLDY    53  47  81 CALM      30.09S
QUANTICO       CLOUDY    58  47  66 E8        30.09F
FREDERICKSBRG* CLOUDY    55  49  79 CALM      30.08S
STAFFORD*      CLOUDY    52  51  97 CALM      30.12F
WARRENTON      CLOUDY    53  46  78 CALM      30.08S
CULPEPER*      PTCLDY    53  50  89 CALM      30.10R
MANASSAS*        N/A     55  45  68 E3        30.10R
LEESBURG*      CLOUDY    57  45  62 CALM      30.10R
WINCHESTER     CLOUDY    50  43  76 CALM      30.08S
FRONT ROYAL*   CLOUDY    52  45  76 CALM      30.08R
LURAY*         CLOUDY    52  45  76 N3        30.07S
$$

VAZ048-049-060>072-079>083-240200-
CENTRAL AND SOUTH CENTRAL VIRGINIA

CITY           SKY/WX    TMP DP  RH WIND       PRES   REMARKS
RICHMOND       LGT RAIN  53  52  96 CALM      30.08R
CHESTERFIELD*    N/A    N/A N/A N/A CALM      30.09R
PETERSBURG*    LGT RAIN  52  51  94 CALM      30.09R
HANOVER        CLOUDY    52  48  86 CALM      30.10R
TAPPAHANNOCK*  RAIN      55  52  91 CALM      30.09R
QUINTON*       CLOUDY    53  53 100 NE6       30.07S
CHARLOTTSVILLE LGT RAIN  53  46  77 CALM      30.07S
GORDONSVILLE*  CLOUDY    52  50  93 CALM      30.08S
ORANGE*        CLOUDY    52  48  87 CALM      30.08S
LOUISA*        RAIN      54  52  94 CALM      30.07S
BUMPASS*       CLOUDY    51  50  97 CALM      30.08S
FARMVILLE*     CLOUDY    52  52 100 NE8       30.04F
CREWE*         CLOUDY    50  50 100 CALM      30.05F
FORT PICKETT*  CLOUDY   N/A N/A N/A NE7       30.05F
CHASE CITY*    CLOUDY    51  49  95 NE8       30.02F
CLARKSVILLE*   CLOUDY    52  52 100 NE7       30.02S
SOUTH HILL*    CLOUDY    51  51 100 N3        30.09S
LAWRENCEVILLE* CLOUDY    52  51  97 NE3       30.05S
EMPORIA*       DRIZZLE   52  52 100 N6        30.06S
$$

VAZ088>098-240200-
SOUTHEAST VIRGINIA

CITY           SKY/WX    TMP DP  RH WIND       PRES   REMARKS
NORFOLK        CLOUDY    56  50  80 E14G21    30.05R
VIRGINIA BEACH CLOUDY    53  49  86 NE10      30.04S
NORFOLK NAVAL  CLOUDY    56  50  80 E17G23    30.06S
WEST POINT*    CLOUDY    53  51  92 NE3       30.10R
SALUDA*        CLOUDY    55  49  81 NE6       30.08R
NEWPORT NEWS   CLOUDY    54  52  93 E12G22    30.05R
LANGLEY AFB    CLOUDY    55  52  89 E16       30.05S
FORT EUSTIS    CLOUDY    54  50  86 NE6       30.04R
WILLIAMSBURG*  CLOUDY    54  54 100 CALM      30.08R
HR EXEC AP*    CLOUDY    54  48  82 E9        30.02F
FRANKLIN*      DRIZZLE   54  50  89 E9        30.06R
US460-WAKEFLD  CLOUDY    52  51  97 NE5       30.06R
$$

VAZ020-022-025-037-045-240200-
WEST CENTRAL AND SOUTHWEST VIRGINIA

CITY           SKY/WX    TMP DP  RH WIND       PRES   REMARKS
STAUNTON*      CLOUDY    50  43  76 CALM      30.08S
WAYNESBORO*    CLOUDY    48  45  87 NE3       30.07S
HOT SPRINGS VA LGT RAIN  41  41 100 E12       30.03R VSB<1/4
LYNCHBURG      LGT RAIN  49  48  97 N7        30.06R
DANVILLE       LGT RAIN  50  50 100 NE6       30.04R
SOUTH BOSTON*  CLOUDY    50  49  95 NE6       30.03S
MARTINSVILLE   LGT RAIN  47  46  95 NE5       30.05F
ROANOKE        LGT RAIN  48  47  96 SE3       30.08R
BLACKSBURG     RAIN      45  42  91 E15       30.06S
DUBLIN*        LGT RAIN  46  42  87 E9        30.03F
MARION*        LGT RAIN  45  43  95 E10       30.01R
HILLSVILLE*    RAIN      42  42 100 CALM      29.98R
RICHLANDS*     RAIN      46  45  95 E8G17     29.94S
WISE*          LGT RAIN  48  48 100 E5        29.94S
ABINGDON*      RAIN      48  47  97 E10       29.95R
$$

MDZ021>025-VAZ099-100-240200-
SOUTHERN MARYLAND AND THE DELMARVA PENINSULA

CITY           SKY/WX    TMP DP  RH WIND       PRES   REMARKS
PATUXENT RIVER CLOUDY    56  50  80 E10       30.09R
BAY BRIDGE APT PTCLDY    55  46  71 CALM      30.10S
LEONARDTOWN    CLOUDY    54  46  76 CALM      30.11R
DOVER          CLOUDY    51  51 100 SE5       30.11R
GEORGETOWN     CLOUDY    51  46  83 MISG      30.13R
EASTON         CLOUDY    55  46  71 SE5       30.15R
CAMBRIDGE      CLOUDY    54  46  76 E5        30.11R
SALISBURY      CLOUDY    51  47  86 E5        30.11R
OCEAN CITY     CLOUDY    51  45  79 E8        30.11R
WALLOPS ISLAND LGT RAIN  53  49  86 NE12      30.11R
ACCOMACK*      CLOUDY    52  49  90 NE6       30.09S
$$

NCZ012>017-030>032-240200-
NORTH CENTRAL AND EASTERN NORTH CAROLINA

CITY           SKY/WX    TMP DP  RH WIND       PRES   REMARKS
ROANOKE RAPIDS LGT RAIN  52  52 100 NE7       30.03R
RALEIGH        CLOUDY    53  50  89 E13G20    29.99S
ELIZABETH CITY CLOUDY    56  54  93 NE15G25   30.03R
AHOSKIE*       HVY RAIN  52  51  96 NE6       30.03S
EDENTON*       CLOUDY    56  54  91 NE8       30.02R
CURRITUCK*     CLOUDY    56  55  99 NE16G23   30.03F
KILL DEVIL HLS CLOUDY    56  54  93 NE5       30.00S
MANTEO         CLOUDY    56  54  90 NE18G24   30.00F
CAPE HATTERAS  CLOUDY    64  60  87 NE14G22   29.94S
TARBORO*       NOT AVBL
GOLDSBORO      CLOUDY    55  55 100 NE12      29.96S FOG
WASHINGTON     CLOUDY    55  54  97 NE12      30.00R
GREENVILLE     CLOUDY    55  54  94 NE9       30.02R
NEW BERN       CLOUDY    59  57  93 NE12      29.97S
WILMINGTON     CLOUDY    63  61  93 NE10      29.91S
$$

VAZ048-240200-
ELSEWHERE

CITY           SKY/WX    TMP DP  RH WIND       PRES   REMARKS
HARRISBURG PA  CLOUDY    54  50  86 CALM      30.08R
BALTIMORE      CLOUDY    54  47  77 CALM      30.10R
ANNAPOLIS      CLOUDY    58  47  66 CALM      30.09S
ANDREWS AFB    CLOUDY    54  48  82 E3        30.09R
PHILADELPHIA   CLOUDY    55  45  68 S9        30.12R
HENDERSON NC   LGT RAIN  49  48  95 NE8       30.02R
GREENSBORO     RAIN      49  49 100 NE13      29.97S FOG
ROCKY MOUNT    CLOUDY    54  53  97 NE8       30.01R
$$

VAZ100-240200-
MARINE

STATION/POSITION TIME  TEMP    WIND        PRES    WAVE   SWELL
                       AIR SEA DIR/SP/G            HT/PER HT/PER
                 (UTC) (F)     (DEG/KT/KT) (MB)    (FT/S) (FT/S)
CAPE MAY NJ      0048   50 57   60/  3/  4 1019.9R
LEWES DE         0048           90/  5/  6   N/A
15NM E FENWICK I 2350   51 52   60/ 12/ 14 1019.6    4/10   3/10
OCEAN-CITY-INLET 0048           80/  7/ 11   N/A
WACHAPREAGUE VA  0048   54 60   40/ 13/ 15 1018.4R
THOMAS POINT MD  0100   57 58   70/  3/  4   N/A
GOOSES REEF MD   0100   58 55   90/  8/ 10 1019.9
COVE POINT MD    0048   56     130/  9/ 10 1019.7R
SOLOMONS ISLAND  0048           70/ 10/ 12   N/A
BISHOPS HEAD MD  0048   55 61   60/ 10/ 13 1019.4R
PINEY POINT MD   0048          110/ 10/ 11   N/A
POTOMAC MD       0050   57     100/ 14/ 16 1017.7F
CAMBRIDGE MD     0048   56 63   90/  8/ 10 1018.9R
LEWISETTA VA     0048   57 62  100/ 13/ 15 1018.4R
RAPPAHANNOCK LGT 0048           50/ 16/ 18 1018.6F
STINGRAY PT      0050   56      90/ 14/ 16 1018.2S
YORK RVR RNG VA  0048   55      70/ 15/ 19 1017.5R
YORKTOWN VA      0048   56 64   80/ 18/ 21 1017.5R
JAMESTOWN VA     0050   54      40/  4/  6   N/A
DOMINION TERM VA 0048   56      90/ 15/ 22 1017.7R
KIPTOPEKE VA     0048      61   60/  9/ 15   N/A
CHES BAY BRIDGE  0048   55 61   70/ 20/ 23 1017.0F
CAPE HENRY VA    0048   54      60/ 20/ 23   N/A
WILLOUBY STN VA  0036   56      70/ 19/ 21 1018.1S
S CRANEY ISL VA  0048   56      70/ 15/ 17 1017.2R
CAPE HENRY BUOY  0042      55                N/A     5/ 6   2/11
1ST LANDING BUOY 0100   55 60              1017.5    3/ 4
CAPE CHARLES BUO 0051      57                N/A     5/ 6   2/12
64NM E OF VA BCH 0050   55 53   40/ 16/ 19 1016.6R   6/ 6   3/11
DUCK PIER NC     0048   56 63   20/ 20/ 23 1015.8S
44100 DUCK FRF   0035      55                N/A     6/ 6   2/11
44056 DUCK FRF   0030      60                N/A     6/ 5   2/12
OREGON INLET NC  0048           10/ 13/ 18   N/A
HATTERAS NC      0048   64 68   40/ 14/ 23 1013.6R
DIAMOND SHLS NC  0050   72 76   40/ 17/ 21 1012.9R   7/ 9   5/ 9
CAPE LOOKOUT NC  0000   63      30/ 22/ 24 1013.0S
$$




USA.gov is the U.S. government's official web portal to all federal, state and local government web resources and services.